TimeCDT,TemperatureF,Dew PointF,Humidity,Sea Level PressureIn,VisibilityMPH,Wind Direction,Wind SpeedMPH,Gust SpeedMPH,PrecipitationIn,Events,Conditions,WindDirDegrees,DateUTC
12:15 AM,84.2,78.8,84,29.98,10.0,Calm,Calm,-,N/A,,Unknown,0,2013-06-15 05:15:00
12:35 AM,84.2,78.8,84,29.98,10.0,SE,4.6,-,N/A,,Unknown,130,2013-06-15 05:35:00
12:55 AM,84.2,78.8,84,29.98,10.0,SE,4.6,-,N/A,,Unknown,130,2013-06-15 05:55:00
1:15 AM,84.2,77.0,79,29.98,10.0,SE,5.8,-,N/A,,Unknown,140,2013-06-15 06:15:00
1:35 AM,84.2,77.0,79,29.98,10.0,SE,3.5,-,N/A,,Unknown,130,2013-06-15 06:35:00
1:55 AM,82.4,77.0,84,29.97,10.0,SE,4.6,-,N/A,,Unknown,130,2013-06-15 06:55:00
2:15 AM,82.4,77.0,84,29.98,10.0,SE,5.8,-,N/A,Thunderstorm,Unknown,130,2013-06-15 07:15:00
2:35 AM,82.4,75.2,79,29.97,10.0,SE,3.5,-,N/A,Thunderstorm,Unknown,130,2013-06-15 07:35:00
2:55 AM,82.4,75.2,79,29.96,10.0,ESE,3.5,-,N/A,,Unknown,120,2013-06-15 07:55:00
3:15 AM,80.6,75.2,84,29.95,10.0,Calm,Calm,-,N/A,,Unknown,0,2013-06-15 08:15:00
3:35 AM,80.6,75.2,84,29.95,10.0,Calm,Calm,-,N/A,Thunderstorm,Unknown,0,2013-06-15 08:35:00
3:55 AM,80.6,75.2,84,29.95,10.0,Calm,Calm,-,N/A,,Unknown,0,2013-06-15 08:55:00
4:15 AM,78.8,75.2,89,29.95,10.0,Calm,Calm,-,N/A,,Unknown,0,2013-06-15 09:15:00
4:35 AM,78.8,75.2,89,29.93,10.0,Calm,Calm,-,N/A,,Unknown,0,2013-06-15 09:35:00
4:55 AM,78.8,75.2,89,29.94,9.0,Calm,Calm,-,N/A,,Unknown,0,2013-06-15 09:55:00
5:15 AM,78.8,75.2,89,29.95,9.0,Calm,Calm,-,N/A,,Unknown,0,2013-06-15 10:15:00
5:35 AM,78.8,75.2,89,29.97,10.0,SE,4.6,-,N/A,,Unknown,140,2013-06-15 10:35:00
5:55 AM,78.8,75.2,89,29.98,10.0,SE,4.6,-,N/A,,Unknown,140,2013-06-15 10:55:00
6:15 AM,78.8,73.4,83,29.99,10.0,SE,6.9,-,N/A,,Unknown,130,2013-06-15 11:15:00
6:35 AM,78.8,73.4,83,30.00,10.0,SE,4.6,-,N/A,,Unknown,140,2013-06-15 11:35:00
6:55 AM,78.8,73.4,83,30.00,10.0,SE,4.6,-,N/A,,Unknown,130,2013-06-15 11:55:00
7:15 AM,78.8,71.6,78,30.01,10.0,ESE,3.5,-,N/A,Thunderstorm,Unknown,120,2013-06-15 12:15:00
7:35 AM,78.8,73.4,83,30.02,5.0,Calm,Calm,-,N/A,Rain-Thunderstorm,Heavy Thunderstorms and Rain,0,2013-06-15 12:35:00
7:55 AM,75.2,71.6,89,30.02,8.0,Calm,Calm,-,0.01,,Unknown,0,2013-06-15 12:55:00
8:15 AM,75.2,69.8,83,30.02,9.0,SE,4.6,-,N/A,,Unknown,140,2013-06-15 13:15:00
8:35 AM,75.2,73.4,94,30.02,9.0,Calm,Calm,-,N/A,,Unknown,0,2013-06-15 13:35:00
8:55 AM,78.8,73.4,83,30.02,9.0,ESE,6.9,-,N/A,,Unknown,110,2013-06-15 13:55:00
9:15 AM,80.6,73.4,79,30.02,9.0,East,4.6,-,N/A,,Unknown,90,2013-06-15 14:15:00
9:35 AM,80.6,73.4,79,30.03,10.0,ESE,4.6,-,N/A,,Unknown,120,2013-06-15 14:35:00
9:55 AM,80.6,73.4,79,30.03,10.0,SE,3.5,-,N/A,,Unknown,130,2013-06-15 14:55:00
10:15 AM,82.4,71.6,70,30.03,10.0,SE,3.5,-,N/A,,Unknown,140,2013-06-15 15:15:00
10:35 AM,84.2,71.6,66,30.02,10.0,SE,3.5,-,N/A,,Unknown,130,2013-06-15 15:35:00
10:55 AM,82.4,71.6,70,30.03,10.0,Calm,Calm,-,N/A,,Unknown,0,2013-06-15 15:55:00
11:15 AM,84.2,71.6,66,30.02,10.0,Calm,Calm,-,N/A,,Unknown,0,2013-06-15 16:15:00
11:35 AM,84.2,73.4,70,30.02,10.0,Calm,Calm,-,N/A,,Unknown,0,2013-06-15 16:35:00
11:55 AM,86.0,73.4,66,30.02,10.0,SE,4.6,-,N/A,,Unknown,140,2013-06-15 16:55:00
12:15 PM,86.0,73.4,66,30.01,10.0,Calm,Calm,-,N/A,,Unknown,0,2013-06-15 17:15:00
12:35 PM,89.6,73.4,59,30.01,10.0,Calm,Calm,-,N/A,,Unknown,0,2013-06-15 17:35:00
12:55 PM,87.8,75.2,66,30.00,10.0,Calm,Calm,-,N/A,,Unknown,0,2013-06-15 17:55:00
1:15 PM,87.8,75.2,66,30.00,9.0,Calm,Calm,-,N/A,,Unknown,0,2013-06-15 18:15:00
1:35 PM,87.8,75.2,66,29.99,9.0,Calm,Calm,-,N/A,,Unknown,0,2013-06-15 18:35:00
1:55 PM,89.6,75.2,62,29.98,9.0,ESE,5.8,-,N/A,,Unknown,120,2013-06-15 18:55:00
2:15 PM,89.6,75.2,62,29.98,9.0,ESE,4.6,-,N/A,,Unknown,110,2013-06-15 19:15:00
2:35 PM,89.6,75.2,62,29.97,10.0,SSE,4.6,-,N/A,,Unknown,150,2013-06-15 19:35:00
2:55 PM,91.4,75.2,59,29.97,10.0,Calm,Calm,-,N/A,,Unknown,0,2013-06-15 19:55:00
3:15 PM,91.4,75.2,59,29.96,10.0,SE,4.6,-,N/A,,Unknown,140,2013-06-15 20:15:00
3:35 PM,91.4,75.2,59,29.96,10.0,SE,4.6,-,N/A,,Unknown,130,2013-06-15 20:35:00
3:55 PM,91.4,77.0,63,29.95,10.0,Calm,Calm,-,N/A,,Unknown,0,2013-06-15 20:55:00
4:15 PM,89.6,77.0,66,29.94,10.0,SE,4.6,-,N/A,,Unknown,130,2013-06-15 21:15:00
4:35 PM,87.8,77.0,70,29.94,9.0,Calm,Calm,-,N/A,,Unknown,0,2013-06-15 21:35:00
4:55 PM,87.8,78.8,75,29.93,10.0,Calm,Calm,-,N/A,Thunderstorm,Unknown,0,2013-06-15 21:55:00
5:15 PM,87.8,78.8,75,29.94,10.0,Calm,Calm,-,N/A,Thunderstorm,Unknown,0,2013-06-15 22:15:00
5:35 PM,87.8,78.8,75,29.93,10.0,Calm,Calm,-,N/A,Thunderstorm,Unknown,0,2013-06-15 22:35:00
5:55 PM,87.8,78.8,75,29.91,9.0,Calm,Calm,-,N/A,Thunderstorm,Unknown,0,2013-06-15 22:55:00
6:15 PM,87.8,78.8,75,29.95,5.0,SSW,12.7,16.1,N/A,Rain-Thunderstorm,Thunderstorms and Rain,200,2013-06-15 23:15:00
6:35 PM,75.2,73.4,94,29.94,1.5,NW,5.8,-,0.18,Rain-Thunderstorm,Heavy Thunderstorms and Rain,310,2013-06-15 23:35:00
6:55 PM,73.4,73.4,100,29.95,5.0,Calm,Calm,-,0.20,Thunderstorm,Unknown,0,2013-06-15 23:55:00
7:15 PM,73.4,73.4,100,29.96,5.0,Calm,Calm,-,N/A,Thunderstorm,Mist,0,2013-06-16 00:15:00
7:35 PM,73.4,73.4,100,29.96,5.0,Calm,Calm,-,N/A,Thunderstorm,Mist,0,2013-06-16 00:35:00
7:55 PM,75.2,75.2,100,29.96,4.0,Calm,Calm,-,N/A,Thunderstorm,Mist,0,2013-06-16 00:55:00
8:15 PM,73.4,73.4,100,29.95,6.0,WNW,3.5,-,N/A,,Mist,300,2013-06-16 01:15:00
8:35 PM,75.2,73.4,94,29.95,9.0,Calm,Calm,-,N/A,,Unknown,0,2013-06-16 01:35:00
8:55 PM,75.2,73.4,94,29.95,9.0,Calm,Calm,-,N/A,,Unknown,0,2013-06-16 01:55:00
9:15 PM,75.2,75.2,100,29.96,6.0,Calm,Calm,-,N/A,,Mist,0,2013-06-16 02:15:00
9:35 PM,75.2,75.2,100,29.95,7.0,Calm,Calm,-,N/A,,Unknown,0,2013-06-16 02:35:00
9:55 PM,75.2,75.2,100,29.97,7.0,Calm,Calm,-,N/A,,Unknown,0,2013-06-16 02:55:00
10:15 PM,75.2,75.2,100,29.97,10.0,Calm,Calm,-,N/A,,Unknown,0,2013-06-16 03:15:00
10:35 PM,75.2,75.2,100,29.97,7.0,Calm,Calm,-,N/A,,Unknown,0,2013-06-16 03:35:00
10:55 PM,75.2,75.2,100,29.97,5.0,Calm,Calm,-,N/A,,Mist,0,2013-06-16 03:55:00
11:15 PM,75.2,75.2,100,29.98,4.0,Calm,Calm,-,N/A,,Mist,0,2013-06-16 04:15:00
11:35 PM,75.2,75.2,100,29.98,7.0,Calm,Calm,-,N/A,,Unknown,0,2013-06-16 04:35:00
11:55 PM,75.2,75.2,100,29.98,6.0,Calm,Calm,-,N/A,,Mist,0,2013-06-16 04:55:00